This demonstration page uses our WeatherBlox Daily Observations layout. Learn more.

Left ArrowRight Arrow

41.55636, -103.73856

Hourly Observations for October 3, 2015

Temp ( °F °C ) Dew Point ( °F °C ) Humidity (%) Winds ( mph kmh ) Pressure ( in mb ) Visibility ( mi km ) Precip ( " mm )
1:41 am 01:41 Cloudy 48 8.9 45 7.2 89 89 SE 15 24 29.94 1014 10 16.0934 0 0
1:53 am 01:53 Cloudy 48 8.9 45 7.2 89 89 SE 14 22 29.94 1014 10 16.0934 0 0
2:01 am 02:01 Cloudy 48 8.9 45 7.2 89 89 SE 13 20 29.94 1014 10 16.0934 0 0
2:20 am 02:20 Cloudy 46 8 45 7 93 93 ESE 14 22 29.94 1014 10 16.0934 0 0
3:53 am 03:53 Cloudy 46 8 45 7 93 93 ESE 13 20 29.91 1013 10 16.0934 0 0
4:53 am 04:53 Cloudy 47 8.3 44 6.7 90 90 ESE 17 28 29.91 1013 10 16.0934 0 0
5:03 am 05:03 Cloudy 46 8 45 7 93 93 ESE 14 22 29.91 1013 10 16.0934 0 0
5:12 am 05:12 Cloudy 46 8 45 7 93 93 SE 14 22 29.91 1013 10 16.0934 0 0
5:53 am 05:53 Cloudy with Light Rain 46 7.8 44 6.7 93 93 ESE 17 28 29.88 1012 7 11.26538 0.02 0.508
6:29 am 06:29 Cloudy with Light Rain 45 7.2 44 6.7 97 97 E 25 41 29.88 1012 9 14.48406 0.08 2.032
6:41 am 06:41 Cloudy 45 7.2 45 7.2 100 100 ESE 23 37 29.88 1012 10 16.0934 0.08 2.032
6:53 am 06:53 Cloudy 45 7.2 45 7.2 100 100 SE 14 22 29.88 1012 10 16.0934 0.08 2.032
7:50 am 07:50 Cloudy 46 8 46 8 100 100 SE 14 22 29.91 1013 10 16.0934 0 0
7:53 am 07:53 Cloudy 46 7.8 46 7.8 100 100 SE 14 22 29.9 1012 10 16.0934 0 0
8:30 am 08:30 Cloudy 46 8 45 7 93 93 SE 15 24 29.91 1013 10 16.0934 0 0
8:45 am 08:45 Cloudy 47 8.3 44 6.7 90 90 SE 12 19 29.91 1013 10 16.0934 0 0
8:53 am 08:53 Cloudy 47 8.3 44 6.7 90 90 SE 14 22 29.91 1013 10 16.0934 0 0
9:00 am 09:00 Cloudy 46 8 45 7 93 93 SE 14 22 29.91 1013 10 16.0934 0 0
9:39 am 09:39 Cloudy 47 8.3 45 7.2 93 93 ESE 13 20 29.91 1013 10 16.0934 0 0
9:53 am 09:53 Cloudy 47 8.3 45 7.2 93 93 ESE 14 22 29.9 1013 10 16.0934 0 0
10:49 am 10:49 Cloudy 48 9 45 7 87 87 ESE 14 22 29.91 1013 10 16.0934 0 0
10:53 am 10:53 Cloudy 48 8.9 45 7.2 89 89 ESE 16 26 29.9 1013 10 16.0934 0 0
11:38 am 11:38 Cloudy 48 9 45 7 87 87 SE 15 24 29.91 1013 10 16.0934 0 0
11:53 am 11:53 Cloudy 48 8.9 44 6.7 86 86 ESE 16 26 29.9 1013 10 16.0934 0 0
12:53 pm 12:53 Cloudy 49 9.4 44 6.7 83 83 ESE 16 26 29.9 1013 10 16.0934 0 0
1:53 pm 13:53 Cloudy 49 9.4 45 7.2 86 86 SE 14 22 29.88 1012 10 16.0934 0 0
2:10 pm 14:10 Cloudy 48 9 45 7 87 87 SE 15 24 29.91 1013 10 16.0934 0 0
2:53 pm 14:53 Cloudy 49 9.4 45 7.2 86 86 SE 12 19 29.88 1012 10 16.0934 0 0
3:53 pm 15:53 Cloudy 49 9.4 45 7.2 86 86 SE 15 24 29.89 1012 10 16.0934 0 0
4:53 pm 16:53 Cloudy 49 9.4 46 7.8 90 90 ESE 10 17 29.91 1013 10 16.0934 0 0
5:48 pm 17:48 Cloudy with Mist and Fog 48 9 46 8 94 94 ESE 10 17 29.91 1013 2.5 4.02335 0 0
5:53 pm 17:53 Cloudy with Mist and Fog 49 9.4 47 8.3 93 93 ESE 10 17 29.92 1013 2 3.21868 0 0
6:03 pm 18:03 Cloudy with Mist and Fog 48 9 46 8 94 94 ESE 12 19 29.91 1013 1.5 2.41401 0 0
6:14 pm 18:14 Cloudy with Mist and Fog 48 9 46 8 94 94 ESE 8 13 29.91 1013 1.5 2.41401 0 0
6:29 pm 18:29 Cloudy with Mist and Fog 48 8.9 47 8.3 96 96 ESE 12 19 29.94 1014 2.5 4.02335 0 0
6:51 pm 18:51 Cloudy with Mist and Fog 48 9 46 8 94 94 ESE 10 17 29.94 1014 3 4.82802 0 0
6:53 pm 18:53 Cloudy with Mist and Fog 49 9.4 47 8.3 93 93 ESE 10 17 29.95 1014 3 4.82802 0 0
7:53 pm 19:53 Cloudy with Mist and Fog 49 9.4 47 8.3 93 93 SE 9 15 29.96 1015 5 8.0467 0 0
8:53 pm 20:53 Cloudy with Mist and Fog 49 9.4 47 8.3 93 93 ESE 13 20 29.99 1016 4 6.43736 0 0
9:51 pm 21:51 Cloudy with Mist and Fog 48 9 46 8 94 94 ESE 14 22 30 1016 5 8.0467 0 0
9:53 pm 21:53 Cloudy with Mist and Fog 48 8.9 46 7.8 93 93 ESE 12 19 30.01 1016 5 8.0467 0 0
10:17 pm 22:17 Cloudy 48 8.9 46 7.8 93 93 ESE 14 22 30 1016 9 14.48406 0 0
10:38 pm 22:38 Cloudy 48 9 46 8 94 94 ESE 14 22 30 1016 8 12.87472 0 0
10:53 pm 22:53 Cloudy 48 8.9 46 7.8 93 93 ESE 15 24 30.01 1016 8 12.87472 0 0
11:12 pm 23:12 Cloudy with Mist and Fog 48 9 46 8 94 94 ESE 10 17 30 1016 6 9.65604 0 0
11:53 pm 23:53 Cloudy with Mist and Fog 48 8.9 47 8.3 96 96 ESE 14 22 30.03 1017 4 6.43736 0 0

Powered by AerisWeather